TimeEDT,TemperatureF,Dew PointF,Humidity,Sea Level PressureIn,VisibilityMPH,Wind Direction,Wind SpeedMPH,Gust SpeedMPH,PrecipitationIn,Events,Conditions,WindDirDegrees,DateUTC
12:51 AM,28.9,24.1,82,30.31,10.0,ESE,3.5,-,N/A,,Clear,120,2011-10-29 04:51:00
1:51 AM,28.0,24.1,85,30.30,10.0,Calm,Calm,-,N/A,,Clear,0,2011-10-29 05:51:00
2:51 AM,28.4,24.8,86,30.25,10.0,Calm,Calm,-,N/A,,Clear,0,2011-10-29 06:51:00
3:51 AM,27.0,24.1,89,30.30,10.0,ESE,3.5,-,N/A,,Clear,120,2011-10-29 07:51:00
4:51 AM,26.1,24.1,92,30.31,10.0,Calm,Calm,-,N/A,,Clear,0,2011-10-29 08:51:00
5:51 AM,26.1,24.1,92,30.32,10.0,Calm,Calm,-,N/A,,Clear,0,2011-10-29 09:51:00
6:51 AM,27.0,24.1,89,30.32,10.0,Calm,Calm,-,N/A,,Clear,0,2011-10-29 10:51:00
7:51 AM,27.0,25.0,92,30.32,10.0,Calm,Calm,-,N/A,,Clear,0,2011-10-29 11:51:00
8:51 AM,28.9,26.1,89,30.32,10.0,Calm,Calm,-,N/A,,Clear,0,2011-10-29 12:51:00
9:51 AM,33.1,26.1,75,30.31,10.0,Calm,Calm,-,N/A,,Clear,0,2011-10-29 13:51:00
10:51 AM,35.1,25.0,67,30.28,10.0,Calm,Calm,-,N/A,,Clear,0,2011-10-29 14:51:00
11:51 AM,37.0,23.0,57,30.27,10.0,Variable,4.6,-,N/A,,Clear,0,2011-10-29 15:51:00
12:51 PM,37.9,21.0,51,30.25,10.0,NE,6.9,-,N/A,,Mostly Cloudy,50,2011-10-29 16:51:00
1:51 PM,37.0,21.0,52,30.22,10.0,Variable,5.8,-,N/A,,Mostly Cloudy,0,2011-10-29 17:51:00
2:51 PM,37.0,21.9,54,30.18,10.0,SE,3.5,-,N/A,,Overcast,140,2011-10-29 18:51:00
3:51 PM,36.0,24.1,62,30.17,10.0,NE,4.6,-,N/A,,Overcast,50,2011-10-29 19:51:00
4:51 PM,36.0,25.0,64,30.14,10.0,Calm,Calm,-,N/A,,Overcast,0,2011-10-29 20:51:00
5:51 PM,34.0,26.1,73,30.12,10.0,NNW,3.5,-,N/A,,Overcast,340,2011-10-29 21:51:00
6:51 PM,35.1,25.0,67,30.13,10.0,NNW,4.6,-,N/A,,Overcast,330,2011-10-29 22:51:00
7:51 PM,34.0,25.0,70,30.11,10.0,North,3.5,-,N/A,,Overcast,360,2011-10-29 23:51:00
8:51 PM,34.0,25.0,70,30.09,9.0,Calm,Calm,-,N/A,,Overcast,0,2011-10-30 00:51:00
9:16 PM,33.8,26.6,75,30.06,6.0,NE,6.9,-,0.00,Snow,Light Snow,40,2011-10-30 01:16:00
9:26 PM,32.0,26.6,80,30.04,1.8,NE,5.8,-,0.00,Snow,Light Snow,40,2011-10-30 01:26:00
9:47 PM,30.2,28.4,93,30.03,2.0,NNE,5.8,-,0.00,Snow,Light Snow,30,2011-10-30 01:47:00
9:51 PM,30.9,28.9,92,30.08,2.0,NNE,6.9,-,0.00,Snow,Light Snow,20,2011-10-30 01:51:00
9:59 PM,30.2,30.2,100,30.03,2.5,North,3.5,-,0.01,Snow,Light Snow,10,2011-10-30 01:59:00
10:18 PM,30.2,30.2,100,30.04,1.8,Calm,Calm,-,0.01,Snow,Light Snow,0,2011-10-30 02:18:00
10:39 PM,30.2,30.2,100,30.03,1.2,NNW,3.5,-,0.03,Snow,Light Snow,340,2011-10-30 02:39:00
10:51 PM,30.0,30.0,100,30.06,1.8,NNW,4.6,-,0.03,Snow,Light Snow,340,2011-10-30 02:51:00
11:17 PM,30.2,30.2,100,30.00,2.0,NNW,5.8,-,0.01,Snow,Light Snow,330,2011-10-30 03:17:00
11:31 PM,30.2,30.2,100,30.00,1.8,NNW,5.8,-,0.02,Snow,Light Snow,340,2011-10-30 03:31:00
11:51 PM,30.0,30.0,100,30.06,1.8,NNW,5.8,-,0.03,Snow,Light Snow,340,2011-10-30 03:51:00